Weather History for KVLL - December, 2012

Change the Weather History Date:

Saturday, December 29, 2012

  Actual Average (KDET) Record (KDET)
Temperature  
Mean Temperature 30 °F -  
Max Temperature 32 °F 33 °F 62 °F (1984)
Min Temperature 26 °F 22 °F 0 °F (1961)
Degree Days  
Heating Degree Days 36    
Moisture  
Dew Point 26 °F    
Average Humidity 84    
Maximum Humidity 92    
Minimum Humidity 73    
Precipitation  
Precipitation 0.00 in - - ()
Sea Level Pressure  
Sea Level Pressure 29.90 in    
Wind  
Wind Speed 6 mph (NNW)    
Max Wind Speed 12 mph    
Max Gust Speed 17 mph    
Visibility 7 miles    
Events Snow    
Averages and records for this station are not official NWS values.
T = Trace of Precipitation, MM = Missing Value Source: NWS Daily Summary

Daily Weather History Graph

Daily Weather History Graph

Search for Another Location

Airport or City:

Trip Planner

Search our weather history database for the weather conditions in past years. The results will help you decide how hot, cold, wet, or windy it might be!

Date:

Astronomy

Dec. 29, 2012 Rise Set
Actual Time 8:02 AM EST 5:08 PM EST
Civil Twilight 7:30 AM EST 5:40 PM EST
Nautical Twilight 6:54 AM EST 6:15 PM EST
Astronomical Twilight 6:20 AM EST 6:49 PM EST
Moon 6:42 PM EST (12/29) 8:33 AM EST (12/29)
Length of Visible Light 10h 09m
Length of Day
9h 05m
Full, 98% of the Moon is Illuminated
Dec 29
Full
Jan 4
Last Quarter
Jan 11
New
Jan 18
First Quarter
Jan 26
Full

Hourly Weather History & Observations

Time (EST) Temp. Windchill Dew Point Humidity Pressure Visibility Wind Dir Wind Speed Gust Speed Precip Events Conditions
12:15 AM 27.5 °F 22.2 °F 24.8 °F 90% 29.96 in 10.0 mi NNE 4.6 mph - N/A   Overcast
12:34 AM 27.3 °F 19.9 °F 24.6 °F 90% 29.94 in 10.0 mi NNE 6.9 mph - N/A   Overcast
12:55 AM 27.5 °F 21.1 °F 24.6 °F 89% 29.94 in 10.0 mi NE 5.8 mph - N/A   Overcast
1:15 AM 27.5 °F 22.2 °F 24.6 °F 89% 29.94 in 10.0 mi NE 4.6 mph - N/A   Overcast
1:34 AM 27.5 °F 21.1 °F 24.8 °F 90% 29.92 in 7.0 mi NE 5.8 mph - N/A Snow Light Snow
1:55 AM 27.7 °F 21.3 °F 24.8 °F 89% 29.92 in 5.0 mi ENE 5.8 mph - N/A Snow Light Snow
2:14 AM 27.7 °F 20.4 °F 24.8 °F 89% 29.91 in 4.0 mi NE 6.9 mph - N/A Snow Light Snow
2:35 AM 27.9 °F 20.6 °F 25.2 °F 90% 29.90 in 2.0 mi NE 6.9 mph - N/A Snow Light Snow
2:54 AM 27.7 °F 21.3 °F 25.2 °F 90% 29.91 in 1.8 mi NE 5.8 mph - N/A Snow Light Snow
3:15 AM 27.9 °F 21.5 °F 25.3 °F 90% 29.90 in 2.0 mi NE 5.8 mph - N/A Snow Light Snow
3:35 AM 28.2 °F 23.1 °F 25.7 °F 90% 29.90 in 2.0 mi NE 4.6 mph - N/A Snow Light Snow
3:54 AM 28.2 °F 23.1 °F 25.7 °F 90% 29.89 in 1.5 mi NE 4.6 mph - N/A Snow Light Snow
4:15 AM 28.4 °F 23.3 °F 26.1 °F 91% 29.88 in 1.8 mi NNE 4.6 mph - N/A Snow Light Snow
4:34 AM 28.4 °F 22.2 °F 26.2 °F 92% 29.87 in 1.8 mi NNE 5.8 mph - N/A Snow Light Snow
4:54 AM 28.8 °F 25.0 °F 26.4 °F 91% 29.87 in 2.0 mi NE 3.5 mph - N/A Snow Light Snow
5:15 AM 28.8 °F 23.7 °F 26.6 °F 92% 29.86 in 1.5 mi NE 4.6 mph - N/A Snow Light Snow
5:34 AM 28.8 °F 22.6 °F 26.6 °F 92% 29.85 in 1.8 mi NNE 5.8 mph - N/A Snow Light Snow
5:54 AM 28.9 °F 22.8 °F 26.6 °F 91% 29.85 in 1.8 mi NNE 5.8 mph - N/A Snow Light Snow
6:14 AM 29.1 °F 22.1 °F 26.6 °F 90% 29.84 in 2.0 mi NNE 6.9 mph - N/A Snow Light Snow
6:34 AM 29.3 °F 24.3 °F 27.0 °F 91% 29.85 in 3.0 mi NNE 4.6 mph - N/A Snow Light Snow
6:55 AM 29.3 °F 24.3 °F 27.0 °F 91% 29.85 in 4.0 mi NNE 4.6 mph - N/A Snow Light Snow
7:14 AM 29.7 °F 26.1 °F 27.1 °F 90% 29.85 in 3.0 mi NNE 3.5 mph - N/A Snow Light Snow
7:34 AM 29.7 °F 23.7 °F 27.0 °F 90% 29.85 in 4.0 mi North 5.8 mph - N/A Snow Light Snow
7:55 AM 29.7 °F 23.7 °F 27.0 °F 90% 29.84 in 5.0 mi North 5.8 mph - N/A Snow Light Snow
8:14 AM 29.8 °F 26.3 °F 27.1 °F 90% 29.83 in 1.2 mi North 3.5 mph - N/A Snow Light Snow
8:35 AM 29.8 °F 24.9 °F 27.3 °F 90% 29.83 in 2.0 mi North 4.6 mph - N/A Snow Light Snow
8:55 AM 29.8 °F 23.9 °F 27.1 °F 90% 29.83 in 2.5 mi North 5.8 mph - N/A Snow Light Snow
9:14 AM 30.2 °F 23.4 °F 27.3 °F 89% 29.82 in 3.0 mi North 6.9 mph - N/A Snow Light Snow
9:35 AM 30.2 °F 22.6 °F 27.3 °F 89% 29.83 in 3.0 mi North 8.1 mph - N/A Snow Light Snow
9:54 AM 30.7 °F 24.9 °F 27.1 °F 86% 29.83 in 5.0 mi North 5.8 mph - N/A   Overcast
10:15 AM 31.1 °F 24.5 °F 27.3 °F 86% 29.84 in 7.0 mi North 6.9 mph - N/A   Overcast
10:35 AM 31.1 °F 24.5 °F 26.6 °F 83% 29.85 in 10.0 mi North 6.9 mph - N/A   Overcast
10:54 AM 31.3 °F 23.9 °F 26.2 °F 82% 29.85 in 10.0 mi North 8.1 mph - N/A   Overcast
11:15 AM 31.6 °F 27.0 °F 26.1 °F 80% 29.85 in 10.0 mi North 4.6 mph - N/A   Overcast
11:34 AM 32.0 °F 26.4 °F 26.2 °F 79% 29.85 in 10.0 mi NNW 5.8 mph - N/A   Overcast
11:54 AM 32.0 °F 25.6 °F 26.1 °F 79% 29.85 in 7.0 mi NNW 6.9 mph - N/A   Overcast
12:14 PM 31.8 °F 23.9 °F 26.2 °F 80% 29.84 in 7.0 mi NW 9.2 mph - N/A Snow Light Snow
12:34 PM 32.0 °F 24.2 °F 26.4 °F 80% 29.83 in 10.0 mi NNW 9.2 mph - N/A Snow Light Snow
1:14 PM 32.0 °F 27.5 °F 26.1 °F 79% 29.82 in 10.0 mi NW 4.6 mph - N/A Snow Light Snow
1:54 PM 32.7 °F 24.5 °F 26.4 °F 78% 29.83 in 10.0 mi NW 10.4 mph - N/A Snow Light Snow
2:14 PM 32.5 °F 24.2 °F 26.1 °F 77% 29.84 in 7.0 mi NW 10.4 mph - N/A Snow Light Snow
2:35 PM 32.2 °F 25.8 °F 26.4 °F 79% 29.84 in 7.0 mi NW 6.9 mph - N/A Snow Light Snow
2:54 PM 32.2 °F 25.0 °F 26.6 °F 80% 29.85 in 7.0 mi NW 8.1 mph - N/A Snow Light Snow
3:15 PM 32.4 °F 26.0 °F 26.6 °F 79% 29.85 in 7.0 mi NW 6.9 mph - N/A Snow Light Snow
3:35 PM 32.0 °F 23.0 °F 26.6 °F 80% 29.86 in 4.0 mi NW 11.5 mph - N/A Snow Light Snow
3:54 PM 32.2 °F 24.4 °F 27.3 °F 82% 29.87 in 5.0 mi NW 9.2 mph - N/A Snow Light Snow
4:15 PM 32.2 °F 23.8 °F 27.5 °F 83% 29.87 in 4.0 mi NW 10.4 mph - N/A Snow Light Snow
4:35 PM 32.0 °F 24.2 °F 27.3 °F 83% 29.89 in 7.0 mi NW 9.2 mph - N/A Snow Light Snow
4:54 PM 32.0 °F 24.8 °F 26.6 °F 80% 29.90 in 10.0 mi NW 8.1 mph 11.5 mph N/A   Overcast
5:15 PM 32.0 °F 23.0 °F 26.6 °F 80% 29.90 in 10.0 mi NW 11.5 mph - N/A   Overcast
5:34 PM 32.0 °F 24.2 °F 26.2 °F 79% 29.91 in 10.0 mi NW 9.2 mph 17.3 mph N/A   Overcast
6:14 PM 32.0 °F 24.2 °F 26.6 °F 80% 29.93 in 10.0 mi NW 9.2 mph - N/A   Overcast
6:35 PM 32.0 °F 24.2 °F 27.0 °F 82% 29.93 in 10.0 mi NW 9.2 mph - N/A   Overcast
6:54 PM 31.8 °F 24.6 °F 26.4 °F 80% 29.94 in 10.0 mi NW 8.1 mph - N/A   Overcast
7:15 PM 31.6 °F 23.7 °F 26.4 °F 81% 29.95 in 10.0 mi WNW 9.2 mph - N/A   Overcast
7:34 PM 32.0 °F 24.2 °F 26.6 °F 80% 29.96 in 10.0 mi WNW 9.2 mph - N/A   Overcast
7:55 PM 31.6 °F 23.7 °F 26.1 °F 80% 29.96 in 3.0 mi WNW 9.2 mph - N/A   Haze
8:15 PM 31.1 °F 23.1 °F 25.7 °F 80% 29.97 in 7.0 mi WNW 9.2 mph - N/A   Scattered Clouds
8:34 PM 30.6 °F 22.4 °F 24.8 °F 79% 29.97 in 10.0 mi West 9.2 mph - N/A   Mostly Cloudy
8:55 PM 30.6 °F 23.1 °F 23.5 °F 75% 29.98 in 10.0 mi WNW 8.1 mph - N/A   Mostly Cloudy
9:14 PM 30.2 °F 22.6 °F 22.8 °F 74% 29.99 in 10.0 mi WNW 8.1 mph - N/A   Overcast
9:35 PM 29.7 °F 21.3 °F 21.9 °F 73% 30.00 in 10.0 mi WNW 9.2 mph - N/A   Mostly Cloudy
9:55 PM 29.3 °F 22.3 °F 21.7 °F 73% 30.00 in 10.0 mi WNW 6.9 mph - N/A   Mostly Cloudy
10:14 PM 28.8 °F 21.7 °F 21.6 °F 74% 30.01 in 10.0 mi WNW 6.9 mph - N/A   Mostly Cloudy
10:35 PM 28.4 °F 21.2 °F 21.6 °F 76% 30.02 in 10.0 mi WNW 6.9 mph - N/A   Scattered Clouds
10:54 PM 28.2 °F 21.0 °F 21.6 °F 76% 30.03 in 10.0 mi WNW 6.9 mph - N/A   Mostly Cloudy
11:14 PM 27.5 °F 18.0 °F 21.0 °F 77% 30.04 in 10.0 mi WNW 10.4 mph - N/A   Scattered Clouds
11:35 PM 27.1 °F 18.2 °F 20.3 °F 75% 30.05 in 10.0 mi WNW 9.2 mph - N/A   Clear
11:54 PM 26.6 °F 17.5 °F 20.1 °F 77% 30.05 in 10.0 mi WNW 9.2 mph - N/A   Clear